This is the latest recevied weather packets stored in our database for station/object KE5YIM-13. If no packets are shown the sender has not sent any weather packets the latest 10 day(s).
| Time | Temp. | Humidity | Pressure | Rain* | Wind** | Luminosity | Snow |
|---|---|---|---|---|---|---|---|
| 1777821557 | 11.67° C | 50% | 1011.3 hPa | 0 mm | - | 524 W/m² | - |
| 1777821256 | 11.67° C | 49% | 1011.1 hPa | 0 mm | - | 970 W/m² | - |
| 1777820952 | 12.22° C | 47% | 1011.1 hPa | 0 mm | - | 907 W/m² | - |
| 1777820649 | 11.67° C | 49% | 1011.1 hPa | 0 mm | - | 822 W/m² | - |
| 1777820345 | 12.78° C | 50% | 1011.1 hPa | 0 mm | - | 813 W/m² | - |
| 1777820043 | 11.11° C | 49% | 1011.2 hPa | 0 mm | - | 808 W/m² | - |
| 1777819739 | 11.67° C | 50% | 1011 hPa | 0 mm | - | 193 W/m² | - |
| 1777819438 | 11.67° C | 48% | 1011.2 hPa | 0 mm | - | 188 W/m² | - |
| 1777819135 | 11.67° C | 49% | 1010.9 hPa | 0 mm | - | 808 W/m² | - |
| 1777818831 | 11.11° C | 53% | 1011.2 hPa | 0 mm | - | 221 W/m² | - |
| 1777818528 | 11.67° C | 52% | 1011.1 hPa | 0 mm | - | 148 W/m² | - |
| 1777818225 | 11.67° C | 50% | 1010.9 hPa | 0 mm | - | 732 W/m² | - |
| 1777817921 | 12.22° C | 50% | 1011 hPa | 0 mm | - | 664 W/m² | - |
| 1777817619 | 11.11° C | 53% | 1011 hPa | 0 mm | - | 638 W/m² | - |
| 1777817315 | 10.56° C | 54% | 1011 hPa | 0 mm | - | 640 W/m² | - |
| 1777817012 | 10.56° C | 53% | 1011.1 hPa | 0 mm | - | 627 W/m² | - |
| 1777816708 | 10° C | 53% | 1011.4 hPa | 0 mm | - | 629 W/m² | - |
| 1777816406 | 10.56° C | 53% | 1011.1 hPa | 0 mm | - | 584 W/m² | - |
| 1777816104 | 10.56° C | 53% | 1011.2 hPa | 0 mm | - | 628 W/m² | - |
| 1777815801 | 11.11° C | 55% | 1011.2 hPa | 0 mm | - | 586 W/m² | - |
| 1777815498 | 10° C | 56% | 1011.2 hPa | 0 mm | - | 559 W/m² | - |
| 1777815196 | 10° C | 56% | 1011.2 hPa | 0 mm | - | 574 W/m² | - |
| 1777814892 | 10° C | 55% | 1011.2 hPa | 0 mm | - | 571 W/m² | - |
| 1777814588 | 10° C | 58% | 1011.2 hPa | 0 mm | - | 141 W/m² | - |
| 1777814286 | 9.44° C | 58% | 1011.3 hPa | 0 mm | - | 436 W/m² | - |
* Rain latest hour (hover to see other rain measurements)
** Current wind speed in m/s (hover to see current wind gust speed)